Longview, TX

3:55 PM CST on November 18, 2017 (GMT -0600)
Gregg County

Weather History for KGGG - November, 2013

Change the Weather History Date:

Sunday, November 24, 2013

  Actual Average Record
Temperature  
Mean Temperature 39 °F 53 °F  
Max Temperature 44 °F 64 °F 90 °F (1910)
Min Temperature 34 °F 42 °F 21 °F (1916)
Degree Days  
Heating Degree Days 26 12  
Month to date heating degree days 232 201  
Since 1 July heating degree days 281 290  
Cooling Degree Days 0 0  
Month to date cooling degree days 15 22  
Year to date cooling degree days 2727 2417  
Moisture  
Dew Point 24 °F    
Average Humidity 59    
Maximum Humidity 75    
Minimum Humidity 43    
Precipitation  
Precipitation 0.10 in 0.15 in 2.30 in (1940)
Month to date precipitation 3.09 3.53  
Year to date precipitation 35.27 42.10  
Snow  
Snow 0.00 in - - ()
Month to date snowfall 0.0  
Since 1 July snowfall 0.0  
Since 1 September snowfall 0.0  
Snow Depth 0.00 in    
Sea Level Pressure  
Sea Level Pressure 30.47 in    
Wind  
Wind Speed 9 mph (NE)    
Max Wind Speed 17 mph    
Max Gust Speed 25 mph    
Visibility 10 miles    
Events Rain    
T = Trace of Precipitation, MM = Missing Value Source: NWS Daily Summary

Daily Weather History Graph

Daily Weather History Graph

Search for Another Location

Airport or City:

Trip Planner

Search our weather history database for the weather conditions in past years. The results will help you decide how hot, cold, wet, or windy it might be!

Date:

Astronomy

Nov. 24, 2013 Rise Set
Actual Time 6:56 AM CST 5:14 PM CST
Civil Twilight 6:30 AM CST 5:41 PM CST
Nautical Twilight 6:00 AM CST 6:11 PM CST
Astronomical Twilight 5:30 AM CST 6:40 PM CST
Moon 11:30 PM CST (11/24) 11:54 AM CST (11/24)
Length of Visible Light 11h 10m
Length of Day
10h 18m
Waning Gibbous, 60% of the Moon is Illuminated
Nov 24
Waning Gibbous
Nov 25
Last Quarter
Dec 2
New
Dec 9
First Quarter
Dec 17
Full

Hourly Weather History & Observations

Time (CST) Temp. Windchill Dew Point Humidity Pressure Visibility Wind Dir Wind Speed Gust Speed Precip Events Conditions
12:53 AM 39.0 °F 33.4 °F 26.1 °F 60% 30.50 in 10.0 mi NE 8.1 mph - N/A   Clear
1:53 AM 37.9 °F 32.7 °F 25.0 °F 60% 30.51 in 10.0 mi NE 6.9 mph - N/A   Clear
2:53 AM 37.0 °F 29.8 °F 25.0 °F 62% 30.50 in 10.0 mi NE 10.4 mph 17.3 mph N/A   Clear
3:53 AM 36.0 °F 29.6 °F 25.0 °F 64% 30.51 in 10.0 mi NE 8.1 mph - N/A   Clear
4:53 AM 35.1 °F 28.6 °F 25.0 °F 67% 30.53 in 10.0 mi NE 8.1 mph - N/A   Clear
5:53 AM 35.1 °F 26.9 °F 25.0 °F 67% 30.53 in 10.0 mi NNE 11.5 mph 17.3 mph N/A   Clear
6:53 AM 34.0 °F 26.6 °F 23.0 °F 64% 30.56 in 10.0 mi NE 9.2 mph - N/A   Clear
7:53 AM 35.1 °F 27.4 °F 23.0 °F 61% 30.57 in 10.0 mi NE 10.4 mph 18.4 mph N/A   Clear
8:53 AM 36.0 °F 28.0 °F 19.9 °F 52% 30.57 in 10.0 mi NE 11.5 mph 23.0 mph N/A   Clear
9:53 AM 37.0 °F 28.5 °F 18.0 °F 46% 30.56 in 10.0 mi NE 13.8 mph 21.9 mph N/A   Clear
10:53 AM 39.0 °F 32.3 °F 19.0 °F 45% 30.52 in 10.0 mi ENE 10.4 mph - N/A   Clear
11:53 AM 39.9 °F 32.9 °F 19.9 °F 45% 30.48 in 10.0 mi ENE 11.5 mph - N/A   Clear
12:53 PM 42.1 °F 34.9 °F 21.0 °F 43% 30.45 in 10.0 mi ENE 13.8 mph - N/A   Clear
1:53 PM 43.0 °F 37.7 °F 21.9 °F 43% 30.44 in 10.0 mi ENE 9.2 mph - N/A   Mostly Cloudy
2:53 PM 41.0 °F 35.8 °F 21.0 °F 45% 30.44 in 10.0 mi NNE 8.1 mph - N/A   Mostly Cloudy
3:53 PM 39.0 °F 33.4 °F 21.0 °F 49% 30.44 in 10.0 mi NNE 8.1 mph - N/A   Mostly Cloudy
4:53 PM 37.0 °F 31.6 °F 24.1 °F 59% 30.44 in 10.0 mi NE 6.9 mph - 0.01 in Rain Light Rain
5:53 PM 36.0 °F 32.1 °F 27.0 °F 70% 30.43 in 10.0 mi NNE 4.6 mph - 0.01 in Rain Light Rain
6:53 PM 36.0 °F 30.3 °F 27.0 °F 70% 30.43 in 10.0 mi NNE 6.9 mph - 0.00 in   Overcast
7:53 PM 36.0 °F 31.1 °F 27.0 °F 70% 30.43 in 10.0 mi NE 5.8 mph - N/A   Overcast
8:53 PM 36.0 °F 30.3 °F 27.0 °F 70% 30.42 in 10.0 mi East 6.9 mph - N/A   Overcast
9:53 PM 36.0 °F 27.1 °F 28.0 °F 73% 30.38 in 10.0 mi East 13.8 mph - N/A   Overcast
10:53 PM 35.1 °F 30.1 °F 28.9 °F 78% 30.38 in 6.0 mi East 5.8 mph - 0.05 in Rain Rain
11:53 PM 35.1 °F 31.0 °F 30.0 °F 82% 30.38 in 10.0 mi ENE 4.6 mph - 0.03 in   Overcast